User: anonymous   Login
Location: Coupvray
(48.8929°N, 2.7967°E)
Time: 05:21:24
(UTC+00:00)
Language:

CZ-2D R/B - Orbit

View from above orbital plane
View from above orbital plane
View from above satellite
View from above satellite

Ground track
Ground track

The orbit data is extracted from the following two-line orbital elements,

1 36597U 10027B   20273.48274052 +.00000354 +00000-0 +40804-4 0  9998
2 36597 097.8799 231.2139 0061700 359.4472 000.6667 14.90720206559083
Epoch (UTC): 29 September 2020 11:35:08
Eccentricity: 0.0061700
inclination: 97.8799°
perigee height: 552 km
apogee height: 639 km
right ascension of ascending node: 231.2139°
argument of perigee: 359.4472°
revolutions per day: 14.90720206
mean anomaly at epoch: 0.6667°
orbit number at epoch: 55908

The dashed part of the orbit path shows where the satellite is in the earth's shadow,  

DLR